Location: Shepherdstown, WV
(39.4326°N, 77.8042°W)
Time: 05:33:10
(UTC-04:00)

SR - Pass Details

Date: 09 August 2021
Orbit: 581 x 874 km, 66.7° (Epoch: 24 September)

Event Time Altitude Azimuth Distance (km) Brightness Sun altitude
Rises 06:32:30 0° 250° (WSW) 3,422 ? 1.7°
Reaches altitude 10° 06:35:43 10° 267° (W) 2,457 ? 2.3°
Maximum altitude 06:39:46 20° 313° (NW) 1,819 ? 3.0°
Drops below altitude 10° 06:43:40 10° 359° (N) 2,347 ? 3.7°
Sets 06:46:41 0° 17° (NNE) 3,221 ? 4.3°
